| time (UTC) | temp F | wind direction | speed MPH | gust MPH | rain 1hr in | rain 24hr in | rain mn in | humidity % | barometer mb |
| 20260831201338 | 78 | 89 | 2.0 | 5.0 | 0.00 | 0.00 | 0.00 | 71 | 1021.9 |
| 20260831200356 | 78 | 90 | 3.0 | 4.0 | 0.00 | 0.00 | 0.00 | 71 | 1021.9 |
| 20260831195349 | 78 | 91 | 2.0 | 6.0 | 0.00 | 0.00 | 0.00 | 71 | 1021.6 |
| 20260831194353 | 78 | 134 | 2.0 | 4.0 | 0.00 | 0.00 | 0.00 | 71 | 1021.7 |
| 20260831193357 | 78 | 137 | 1.0 | 4.0 | 0.00 | 0.00 | 0.00 | 71 | 1021.5 |
| 20260831192355 | 79 | 144 | 1.0 | 4.0 | 0.00 | 0.00 | 0.00 | 70 | 1021.3 |
| 20260831191340 | 79 | 138 | 1.0 | 5.0 | 0.00 | 0.00 | 0.00 | 70 | 1021.2 |
| 20260831190343 | 79 | 172 | 3.0 | 7.0 | 0.00 | 0.00 | 0.00 | 70 | 1021.0 |
| 20260831185342 | 79 | 161 | 4.0 | 8.0 | 0.00 | 0.00 | 0.00 | 68 | 1021.0 |
| 20260831184340 | 79 | 148 | 3.0 | 6.0 | 0.00 | 0.00 | 0.00 | 67 | 1020.9 |
| 20260831183341 | 79 | 118 | 1.0 | 7.0 | 0.00 | 0.00 | 0.00 | 66 | 1020.8 |
| 20260831182358 | 79 | 113 | 2.0 | 9.0 | 0.00 | 0.00 | 0.00 | 65 | 1020.7 |
| 20260831181337 | 80 | 96 | 5.0 | 10.0 | 0.00 | 0.00 | 0.00 | 65 | 1020.6 |
| 20260831180338 | 80 | 238 | 3.0 | 7.0 | 0.00 | 0.00 | 0.00 | 63 | 1020.5 |
| 20260831175358 | 80 | 215 | 3.0 | 8.0 | 0.00 | 0.00 | 0.00 | 63 | 1020.4 |
| 20260831174356 | 80 | 107 | 2.0 | 9.0 | 0.00 | 0.00 | 0.00 | 61 | 1020.3 |
| 20260831173357 | 81 | 103 | 6.0 | 9.0 | 0.00 | 0.00 | 0.00 | 59 | 1020.3 |
| 20260831172348 | 82 | 133 | 6.0 | 10.0 | 0.00 | 0.00 | 0.00 | 58 | 1020.3 |
| 20260831171349 | 82 | 111 | 3.0 | 9.0 | 0.00 | 0.00 | 0.00 | 55 | 1020.3 |
| 20260831170348 | 82 | 156 | 4.0 | 11.0 | 0.00 | 0.00 | 0.00 | 55 | 1020.4 |
| 20260831165403 | 82 | 240 | 4.0 | 11.0 | 0.00 | 0.00 | 0.00 | 56 | 1020.4 |
| 20260831164354 | 82 | 126 | 5.0 | 12.0 | 0.00 | 0.00 | 0.00 | 56 | 1020.5 |
| 20260831163353 | 83 | 171 | 3.0 | 8.0 | 0.00 | 0.00 | 0.00 | 52 | 1020.5 |
| 20260831162342 | 83 | 110 | 2.0 | 9.0 | 0.00 | 0.00 | 0.00 | 52 | 1020.5 |
| 20260831161343 | 83 | 229 | 6.0 | 12.0 | 0.00 | 0.00 | 0.00 | 52 | 1020.6 |
| 20260831160345 | 83 | 97 | 3.0 | 12.0 | 0.00 | 0.00 | 0.00 | 54 | 1020.4 |
| 20260831155341 | 84 | 162 | 4.0 | 10.0 | 0.00 | 0.00 | 0.00 | 55 | 1020.6 |
| 20260831154352 | 84 | 207 | 2.0 | 14.0 | 0.00 | 0.00 | 0.00 | 55 | 1020.6 |
| 20260831153346 | 84 | 260 | 3.0 | 16.0 | 0.00 | 0.00 | 0.00 | 56 | 1020.7 |
| 20260831152340 | 84 | 233 | 4.0 | 10.0 | 0.00 | 0.00 | 0.00 | 58 | 1020.5 |
| 20260831151401 | 84 | 146 | 4.0 | 9.0 | 0.00 | 0.00 | 0.00 | 59 | 1020.5 |
| 20260831150356 | 85 | 220 | 4.0 | 9.0 | 0.00 | 0.00 | 0.00 | 57 | 1020.5 |
| 20260831145345 | 85 | 178 | 3.0 | 12.0 | 0.00 | 0.00 | 0.00 | 58 | 1020.5 |
| 20260831144344 | 85 | 249 | 6.0 | 12.0 | 0.00 | 0.00 | 0.00 | 57 | 1020.4 |
| 20260831143341 | 85 | 198 | 4.0 | 10.0 | 0.00 | 0.00 | 0.00 | 57 | 1020.4 |
| 20260831142341 | 84 | 212 | 5.0 | 16.0 | 0.00 | 0.00 | 0.00 | 58 | 1020.5 |
| 20260831141339 | 85 | 213 | 9.0 | 14.0 | 0.00 | 0.00 | 0.00 | 57 | 1020.4 |
| 20260831140400 | 84 | 235 | 4.0 | 10.0 | 0.00 | 0.00 | 0.00 | 59 | 1020.5 |
| 20260831135350 | 84 | 145 | 2.0 | 10.0 | 0.00 | 0.00 | 0.00 | 59 | 1020.6 |
| 20260831134348 | 84 | 97 | 2.0 | 13.0 | 0.00 | 0.00 | 0.00 | 59 | 1020.5 |
| 20260831133346 | 84 | 156 | 7.0 | 15.0 | 0.00 | 0.00 | 0.00 | 59 | 1020.6 |
| 20260831132340 | 84 | 126 | 6.0 | 13.0 | 0.00 | 0.00 | 0.00 | 59 | 1020.5 |
| 20260831131349 | 84 | 135 | 5.0 | 14.0 | 0.00 | 0.00 | 0.00 | 60 | 1020.5 |
| 20260831130347 | 84 | 113 | 4.0 | 14.0 | 0.00 | 0.00 | 0.00 | 59 | 1020.5 |
| 20260831125404 | 84 | 165 | 6.0 | 14.0 | 0.00 | 0.00 | 0.00 | 60 | 1020.6 |
| 20260831124340 | 84 | 129 | 6.0 | 16.0 | 0.00 | 0.00 | 0.00 | 58 | 1020.7 |
| 20260831123400 | 84 | 134 | 8.0 | 15.0 | 0.00 | 0.00 | 0.00 | 57 | 1020.8 |
| 20260831122355 | 84 | 130 | 7.0 | 15.0 | 0.00 | 0.00 | 0.00 | 56 | 1020.7 |
| 20260831121353 | 84 | 190 | 8.0 | 15.0 | 0.00 | 0.00 | 0.00 | 55 | 1020.7 |
| 20260831120341 | 85 | 92 | 9.0 | 14.0 | 0.00 | 0.00 | 0.00 | 53 | 1020.8 |
| 20260831115355 | 85 | 71 | 5.0 | 14.0 | 0.00 | 0.00 | 0.00 | 53 | 1020.8 |
| 20260831114348 | 85 | 142 | 8.0 | 14.0 | 0.00 | 0.00 | 0.00 | 52 | 1020.8 |
| 20260831113349 | 85 | 168 | 6.0 | 14.0 | 0.00 | 0.00 | 0.00 | 51 | 1020.9 |
| 20260831112400 | 85 | 125 | 5.0 | 12.0 | 0.00 | 0.00 | 0.00 | 52 | 1020.9 |
| 20260831111341 | 85 | 121 | 4.0 | 14.0 | 0.00 | 0.00 | 0.00 | 51 | 1020.8 |
| 20260831110344 | 85 | 110 | 4.0 | 13.0 | 0.00 | 0.00 | 0.00 | 50 | 1021.0 |
| 20260831105353 | 86 | 118 | 5.0 | 11.0 | 0.00 | 0.00 | 0.00 | 48 | 1020.9 |
| 20260831104351 | 85 | 129 | 5.0 | 8.0 | 0.00 | 0.00 | 0.00 | 49 | 1020.9 |
| 20260831103342 | 85 | 201 | 5.0 | 8.0 | 0.00 | 0.00 | 0.00 | 50 | 1021.0 |
| 20260831102353 | 84 | 245 | 2.0 | 7.0 | 0.00 | 0.00 | 0.00 | 51 | 1021.1 |
| 20260831101348 | 84 | 333 | 2.0 | 6.0 | 0.00 | 0.00 | 0.00 | 52 | 1021.0 |
| 20260831100347 | 83 | 214 | 3.0 | 5.0 | 0.00 | 0.00 | 0.00 | 54 | 1021.1 |
| 20260831095339 | 83 | 262 | 6.0 | 9.0 | 0.00 | 0.00 | 0.00 | 54 | 1021.2 |
| 20260831094355 | 82 | 202 | 2.0 | 6.0 | 0.00 | 0.00 | 0.00 | 55 | 1021.2 |
| 20260831093351 | 82 | 226 | 2.0 | 6.0 | 0.00 | 0.00 | 0.00 | 56 | 1021.2 |
| 20260831092344 | 81 | 327 | 4.0 | 6.0 | 0.00 | 0.00 | 0.00 | 57 | 1021.3 |
| 20260831091349 | 81 | 282 | 1.0 | 5.0 | 0.00 | 0.00 | 0.00 | 58 | 1021.2 |
| 20260831090351 | 81 | 24 | 2.0 | 4.0 | 0.00 | 0.00 | 0.00 | 57 | 1021.4 |
| 20260831085349 | 80 | 32 | 0.0 | 4.0 | 0.00 | 0.00 | 0.00 | 56 | 1021.2 |
| 20260831084344 | 80 | 58 | 2.0 | 4.0 | 0.00 | 0.00 | 0.00 | 52 | 1021.1 |
| 20260831083341 | 79 | 48 | 1.0 | 4.0 | 0.00 | 0.00 | 0.00 | 50 | 1021.1 |
| 20260831082354 | 78 | 0 | 1.0 | 4.0 | 0.00 | 0.00 | 0.00 | 50 | 1021.0 |
| 20260831081337 | 76 | 0 | 1.0 | 3.0 | 0.00 | 0.00 | 0.00 | 51 | 1021.0 |
| 20260831080340 | 75 | 0 | 2.0 | 4.0 | 0.00 | 0.00 | 0.00 | 52 | 1021.0 |
| 20260831075359 | 74 | 359 | 1.0 | 4.0 | 0.00 | 0.00 | 0.00 | 53 | 1021.0 |
| 20260831074342 | 74 | 359 | 2.0 | 4.0 | 0.00 | 0.00 | 0.00 | 54 | 1020.9 |
| 20260831073346 | 74 | 359 | 3.0 | 4.0 | 0.00 | 0.00 | 0.00 | 55 | 1020.7 |
| 20260831072345 | 72 | 0 | 1.0 | 4.0 | 0.00 | 0.00 | 0.00 | 57 | 1020.7 |
| 20260831071352 | 72 | 247 | 2.0 | 4.0 | 0.00 | 0.00 | 0.00 | 59 | 1020.7 |
| 20260831070354 | 71 | 235 | 2.0 | 3.0 | 0.00 | 0.00 | 0.00 | 61 | 1020.7 |
| 20260831065352 | 71 | 234 | 0.0 | 1.0 | 0.00 | 0.00 | 0.00 | 63 | 1020.5 |
| 20260831064358 | 70 | 234 | 0.0 | 1.0 | 0.00 | 0.00 | 0.00 | 63 | 1020.5 |
| 20260831063338 | 70 | 234 | 0.0 | 2.0 | 0.00 | 0.00 | 0.00 | 63 | 1020.4 |
| 20260831062354 | 70 | 234 | 0.0 | 2.0 | 0.00 | 0.00 | 0.00 | 64 | 1020.4 |
| 20260831061356 | 69 | 234 | 1.0 | 2.0 | 0.00 | 0.00 | 0.00 | 65 | 1020.1 |
| 20260831060338 | 68 | 234 | 1.0 | 3.0 | 0.00 | 0.00 | 0.00 | 65 | 1019.8 |
| 20260831055356 | 68 | 234 | 0.0 | 2.0 | 0.00 | 0.00 | 0.00 | 64 | 1019.8 |
| 20260831054337 | 67 | 234 | 0.0 | 2.0 | 0.00 | 0.00 | 0.00 | 65 | 1019.8 |
| 20260831053338 | 67 | 234 | 1.0 | 3.0 | 0.00 | 0.00 | 0.00 | 64 | 1019.6 |
| 20260831052354 | 67 | 233 | 1.0 | 2.0 | 0.00 | 0.00 | 0.00 | 63 | 1019.4 |
| 20260831051339 | 67 | 233 | 0.0 | 3.0 | 0.00 | 0.00 | 0.00 | 64 | 1019.4 |
| 20260831050342 | 68 | 233 | 2.0 | 3.0 | 0.00 | 0.00 | 0.00 | 64 | 1019.2 |
| 20260831045340 | 68 | 233 | 0.0 | 0.0 | 0.00 | 0.00 | 0.00 | 65 | 1019.3 |
| 20260831044348 | 68 | 233 | 0.0 | 1.0 | 0.00 | 0.00 | 0.00 | 65 | 1019.3 |
| 20260831043336 | 68 | 233 | 1.0 | 2.0 | 0.00 | 0.00 | 0.00 | 64 | 1019.3 |
| 20260831042352 | 69 | 233 | 1.0 | 2.0 | 0.00 | 0.00 | 0.00 | 62 | 1019.2 |
| 20260831040338 | 68 | 235 | 1.0 | 3.0 | 0.00 | 0.00 | 0.00 | 60 | 1019.2 |
| 20260831035358 | 68 | 233 | 1.0 | 3.0 | 0.00 | 0.00 | 0.00 | 59 | 1019.3 |
| 20260831034356 | 69 | 232 | 1.0 | 3.0 | 0.00 | 0.00 | 0.00 | 61 | 1019.2 |
| 20260831033336 | 68 | 232 | 0.0 | 4.0 | 0.00 | 0.00 | 0.00 | 58 | 1019.3 |
| 20260831032337 | 69 | 232 | 2.0 | 4.0 | 0.00 | 0.00 | 0.00 | 59 | 1019.2 |
| 20260831031356 | 69 | 232 | 1.0 | 4.0 | 0.00 | 0.00 | 0.00 | 59 | 1019.3 |
| 20260831030354 | 69 | 232 | 1.0 | 3.0 | 0.00 | 0.00 | 0.00 | 59 | 1019.2 |
| 20260831025352 | 69 | 231 | 2.0 | 3.0 | 0.00 | 0.00 | 0.00 | 57 | 1019.2 |
| 20260831024352 | 69 | 231 | 1.0 | 3.0 | 0.00 | 0.00 | 0.00 | 57 | 1019.2 |
| 20260831023351 | 70 | 231 | 1.0 | 3.0 | 0.00 | 0.00 | 0.00 | 57 | 1019.1 |
| 20260831022345 | 70 | 230 | 2.0 | 4.0 | 0.00 | 0.00 | 0.00 | 56 | 1019.1 |
| 20260831021349 | 70 | 230 | 1.0 | 3.0 | 0.00 | 0.00 | 0.00 | 57 | 1019.1 |
| 20260831020356 | 70 | 230 | 0.0 | 0.0 | 0.00 | 0.00 | 0.00 | 58 | 1019.0 |
| 20260831015353 | 70 | 230 | 0.0 | 0.0 | 0.00 | 0.00 | 0.00 | 59 | 1019.0 |
| 20260831014340 | 71 | 230 | 0.0 | 0.0 | 0.00 | 0.00 | 0.00 | 59 | 1018.9 |
| 20260831013341 | 71 | 230 | 0.0 | 0.0 | 0.00 | 0.00 | 0.00 | 59 | 1019.0 |
| 20260831012357 | 72 | 230 | 0.0 | 0.0 | 0.00 | 0.00 | 0.00 | 58 | 1019.0 |
| 20260831011338 | 72 | 230 | 0.0 | 0.0 | 0.00 | 0.00 | 0.00 | 58 | 1018.9 |
| 20260831010341 | 72 | 230 | 0.0 | 1.0 | 0.00 | 0.00 | 0.00 | 57 | 1018.9 |
| 20260831005342 | 72 | 230 | 0.0 | 1.0 | 0.00 | 0.00 | 0.00 | 56 | 1018.9 |
| 20260831004343 | 72 | 230 | 0.0 | 2.0 | 0.00 | 0.00 | 0.00 | 55 | 1018.9 |
| 20260831003342 | 72 | 230 | 1.0 | 4.0 | 0.00 | 0.00 | 0.00 | 55 | 1018.8 |
| 20260831002353 | 72 | 230 | 1.0 | 4.0 | 0.00 | 0.00 | 0.00 | 56 | 1018.8 |
| 20260831001337 | 73 | 230 | 1.0 | 3.0 | 0.00 | 0.00 | 0.00 | 56 | 1018.6 |
| 20260831000340 | 73 | 230 | 0.0 | 0.0 | 0.00 | 0.00 | 0.00 | 56 | 1018.7 |
| 20260830235359 | 73 | 229 | 0.0 | 0.0 | 0.00 | 0.00 | 0.00 | 55 | 1018.8 |
| 20260830234356 | 74 | 229 | 0.0 | 1.0 | 0.00 | 0.00 | 0.00 | 55 | 1018.7 |
| 20260830233356 | 74 | 229 | 0.0 | 1.0 | 0.00 | 0.00 | 0.00 | 55 | 1018.8 |
| 20260830232348 | 74 | 229 | 0.0 | 1.0 | 0.00 | 0.00 | 0.00 | 54 | 1018.8 |
| 20260830231351 | 74 | 229 | 1.0 | 2.0 | 0.00 | 0.00 | 0.00 | 54 | 1018.8 |
| 20260830230349 | 74 | 229 | 2.0 | 3.0 | 0.00 | 0.00 | 0.00 | 53 | 1018.9 |
| 20260830225344 | 75 | 229 | 1.0 | 2.0 | 0.00 | 0.00 | 0.00 | 52 | 1018.8 |
| 20260830224348 | 75 | 229 | 1.0 | 2.0 | 0.00 | 0.00 | 0.00 | 51 | 1018.8 |
| 20260830223348 | 75 | 229 | 0.0 | 3.0 | 0.00 | 0.00 | 0.00 | 50 | 1018.8 |
| 20260830222345 | 75 | 229 | 1.0 | 3.0 | 0.00 | 0.00 | 0.00 | 50 | 1018.8 |
| 20260830221343 | 75 | 229 | 1.0 | 3.0 | 0.00 | 0.00 | 0.00 | 50 | 1018.7 |
| 20260830220344 | 76 | 229 | 1.0 | 2.0 | 0.00 | 0.00 | 0.00 | 49 | 1018.7 |
| 20260830215339 | 76 | 229 | 0.0 | 2.0 | 0.00 | 0.00 | 0.00 | 49 | 1018.7 |
| 20260830214338 | 76 | 229 | 1.0 | 3.0 | 0.00 | 0.00 | 0.00 | 49 | 1018.6 |
| 20260830213337 | 77 | 231 | 0.0 | 1.0 | 0.00 | 0.00 | 0.00 | 50 | 1018.6 |
| 20260830212354 | 77 | 231 | 0.0 | 2.0 | 0.00 | 0.00 | 0.00 | 49 | 1018.5 |
| 20260830211338 | 77 | 231 | 0.0 | 2.0 | 0.00 | 0.00 | 0.00 | 50 | 1018.4 |
| 20260830210339 | 78 | 231 | 2.0 | 2.0 | 0.00 | 0.00 | 0.00 | 51 | 1018.6 |
| 20260830205358 | 78 | 231 | 2.0 | 3.0 | 0.00 | 0.00 | 0.00 | 50 | 1018.5 |
| 20260830204356 | 78 | 231 | 1.0 | 1.0 | 0.00 | 0.00 | 0.00 | 48 | 1018.4 |
| 20260830203340 | 79 | 231 | 0.0 | 4.0 | 0.00 | 0.00 | 0.00 | 50 | 1018.4 |
| 20260830202336 | 79 | 231 | 2.0 | 5.0 | 0.00 | 0.00 | 0.00 | 53 | 1018.3 |